Overview Statistics Trail Chart Weather Telemetry Raw packets
 

This is the latest recevied weather packets stored in our database for station/object KB4MOX. If no packets are shown the sender has not sent any weather packets the latest 10 day(s).

<< 80 81 82 83 84 85 86 >>
Time Temp. Humidity Pressure Rain* Wind** Luminosity Snow
1788035217 31.67° C 56% 1019.7 hPa 0 mm - 391 W/m² -
1788034913 31.67° C 56% 1019.8 hPa 0 mm - 395 W/m² -
1788034609 32.22° C 56% 1019.7 hPa 0 mm - 333 W/m² -
1788034305 32.22° C 55% 1019.7 hPa 0 mm - 526 W/m² -
1788034004 31.67° C 55% 1019.9 hPa 0 mm - 436 W/m² -
1788033699 31.67° C 57% 1020 hPa 0 mm - 505 W/m² -
1788033398 31.11° C 57% 1019.9 hPa 0 mm - 420 W/m² -
1788033094 31.11° C 57% 1020.1 hPa 0 mm - 296 W/m² -
1788032793 31.67° C 56% 1020.1 hPa 0 mm - 194 W/m² -
1788032497 31.67° C 56% 1020.2 hPa 0 mm - 176 W/m² -
1788032184 31.67° C 57% 1020 hPa 0 mm - 518 W/m² -
1788031880 31.11° C 58% 1020.1 hPa 0 mm - 676 W/m² -
1788031580 31.11° C 57% 1020.3 hPa 0 mm - 697 W/m² -
1788031280 31.11° C 58% 1020.5 hPa 0 mm - 582 W/m² -
1788030979 30.56° C 59% 1020.2 hPa 0 mm - 325 W/m² -
1788030678 30.56° C 57% 1020.2 hPa 0 mm - 231 W/m² -
1788030374 30.56° C 59% 1020.4 hPa 0 mm - 344 W/m² -
1788030070 30.56° C 60% 1020.5 hPa 0 mm - 254 W/m² -
1788029769 30.56° C 60% 1020.6 hPa 0 mm - 237 W/m² -
1788029464 30.56° C 59% 1020.8 hPa 0 mm - 296 W/m² -
1788029163 30.56° C 59% 1020.5 hPa 0 mm - 350 W/m² -
1788028863 30.56° C 58% 1020.7 hPa 0 mm - 212 W/m² -
1788028566 31.11° C 56% 1020.8 hPa 0 mm - 260 W/m² -
1788028253 31.67° C 57% 1020.7 hPa 0 mm - 399 W/m² -
1788027949 31.11° C 58% 1020.8 hPa 0 mm - 687 W/m² -

* Rain latest hour (hover to see other rain measurements)
** Current wind speed in m/s (hover to see current wind gust speed)